FW1583 Weather Reports


Display with metric or nautical units.
time (UTC)temp
F
wind
direction
speed
MPH
gust
MPH
rain 1hr
in
rain 24hr
in
rain mn
in
humidity
%
barometer
mb
20260504201328 79 181 0.0 2.0 0.00 0.00 0.00 43 1012.5
20260504200428 78 147 1.0 3.0 0.00 0.00 0.00 39 1012.6
20260504195431 78 233 1.0 3.0 0.00 0.00 0.00 36 1012.8
20260504194428 78 251 0.0 2.0 0.00 0.00 0.00 36 1012.8
20260504193429 78 215 0.0 2.0 0.00 0.00 0.00 37 1013.0
20260504192428 77 231 2.0 6.0 0.00 0.00 0.00 32 1013.2
20260504191528 77 189 1.0 4.0 0.00 0.00 0.00 34 1013.4
20260504190529 77 251 1.0 3.0 0.00 0.00 0.00 38 1013.7
20260504185628 77 151 0.0 0.0 0.00 0.00 0.00 38 1013.7
20260504184629 76 250 1.0 3.0 0.00 0.00 0.00 34 1014.0
20260504182629 75 221 1.0 4.0 0.00 0.00 0.00 37 1014.3
20260504181628 75 164 1.0 2.0 0.00 0.00 0.00 38 1014.5
20260504180628 74 165 0.0 0.0 0.00 0.00 0.00 40 1014.4
20260504174630 73 194 2.0 5.0 0.00 0.00 0.00 36 1014.9
20260504173729 73 182 0.0 0.0 0.00 0.00 0.00 36 1015.0
20260504172745 73 267 2.0 4.0 0.00 0.00 0.00 35 1015.1
20260504171828 73 293 1.0 4.0 0.00 0.00 0.00 37 1015.1
20260504170927 73 214 0.0 2.0 0.00 0.00 0.00 40 1015.4
20260504150829 68 292 0.0 1.0 0.00 0.00 0.00 39 1016.7
20260504140928 60 157 0.0 0.0 0.00 0.00 0.00 46 1017.0
20260504100229 49 202 0.0 0.0 0.00 0.00 0.00 62 1017.7
20260504081427 49 157 0.0 0.0 0.00 0.00 0.00 67 1018.0
20260504080428 49 157 0.0 0.0 0.00 0.00 0.00 66 1018.1
20260504050727 47 157 0.0 0.0 0.00 0.00 0.00 65 1018.4
20260504045729 47 157 0.0 0.0 0.00 0.00 0.00 65 1018.3
20260504044728 46 157 0.0 0.0 0.00 0.00 0.00 66 1018.2
20260504043729 46 157 0.0 0.0 0.00 0.00 0.00 66 1018.2
20260504041830 46 157 0.0 0.0 0.00 0.00 0.00 64 1018.2
20260504040829 46 157 0.0 0.0 0.00 0.00 0.00 63 1018.2
20260504040728 46 157 0.0 0.0 0.00 0.00 0.00 63 1018.1
20260504034740 47 157 0.0 0.0 0.00 0.00 0.00 61 1018.3
20260504033839 47 157 0.0 0.0 0.00 0.00 0.00 60 1018.4
20260504033739 47 157 0.0 0.0 0.00 0.00 0.00 59 1018.3
20260504032741 47 157 0.0 0.0 0.00 0.00 0.00 57 1018.2
20260504032641 47 157 0.0 0.0 0.00 0.00 0.00 58 1018.2
20260504031640 46 157 0.0 0.0 0.00 0.00 0.00 57 1018.1
20260504030738 46 157 0.0 0.0 0.00 0.00 0.00 57 1018.1
20260504025739 46 157 0.0 0.0 0.00 0.00 0.00 56 1018.0
20260504024838 47 157 0.0 0.0 0.00 0.00 0.00 57 1017.9
20260504023839 47 157 0.0 0.0 0.00 0.00 0.00 58 1018.0
20260504022840 47 157 0.0 0.0 0.00 0.00 0.00 56 1018.0
20260504021938 47 157 0.0 0.0 0.00 0.00 0.00 55 1017.9
20260504020942 48 157 0.0 0.0 0.00 0.00 0.00 54 1017.7
20260504015040 48 157 0.0 0.0 0.00 0.00 0.00 53 1017.5
20260504014138 48 157 0.0 0.0 0.00 0.00 0.00 53 1017.5
20260504013141 49 157 0.0 0.0 0.00 0.00 0.00 52 1017.6
20260504012142 49 157 0.0 0.0 0.00 0.00 0.00 52 1017.5
20260504012040 49 157 0.0 0.0 0.00 0.00 0.00 52 1017.5
20260504011040 50 157 0.0 0.0 0.00 0.00 0.00 51 1017.6
20260504010040 51 157 0.0 0.0 0.00 0.00 0.00 50 1017.5
20260504004238 52 157 0.0 0.0 0.00 0.00 0.00 49 1017.4
20260504002356 54 157 0.0 0.0 0.00 0.00 0.00 45 1017.2
20260504001355 55 157 0.0 0.0 0.00 0.00 0.00 44 1017.2
20260504000440 56 157 0.0 0.0 0.00 0.00 0.00 39 1017.2
20260503235440 57 157 0.0 0.0 0.00 0.00 0.00 35 1017.1
20260503234457 58 157 0.0 0.0 0.00 0.00 0.00 34 1017.1
20260503232457 59 247 0.0 0.0 0.00 0.00 0.00 31 1016.8
20260503232338 59 247 0.0 1.0 0.00 0.00 0.00 31 1016.8
20260503232255 59 251 0.0 2.0 0.00 0.00 0.00 31 1016.9
20260503231241 60 158 0.0 1.0 0.00 0.00 0.00 30 1016.8
20260503230339 61 247 1.0 3.0 0.00 0.00 0.00 32 1016.8
20260503225340 61 242 1.0 3.0 0.00 0.00 0.00 30 1016.8
20260503224341 63 67 0.0 0.0 0.00 0.00 0.00 29 1016.8
20260503223438 64 207 1.0 3.0 0.00 0.00 0.00 30 1016.9
20260503215440 65 241 0.0 2.0 0.00 0.00 0.00 28 1016.8
20260503213440 66 315 1.0 2.0 0.00 0.00 0.00 32 1016.9
20260503212438 65 292 0.0 0.0 0.00 0.00 0.00 31 1016.9
20260503211439 64 246 2.0 6.0 0.00 0.00 0.00 29 1016.9
20260503210440 64 260 1.0 4.0 0.00 0.00 0.00 30 1016.8
20260503205537 65 218 1.0 5.0 0.00 0.00 0.00 30 1017.0
20260503204540 64 263 1.0 3.0 0.00 0.00 0.00 32 1017.2
20260503203538 64 245 2.0 5.0 0.00 0.00 0.00 31 1017.0
20260503202637 65 208 2.0 7.0 0.00 0.00 0.00 31 1017.1